User: anonymous   Login
Location: *
(43.2048°N, 0.1612°E)
Time: 04:05:57
(UTC+00:00)
Language:

BREEZE-M DEB (TANK) - Orbit

View from above orbital plane
View from above orbital plane
View from above satellite
View from above satellite

Ground track
Ground track

The orbit data is extracted from the following two-line orbital elements,

1 37871U 11064E   24060.73163826  .00000717  00000-0  82487-3 0  9993
2 37871  52.5750 264.8071 5704535 155.3580 248.6971  4.36393808194326
Epoch (UTC): 29 February 2024 17:33:33
Eccentricity: 0.5704535
inclination: 52.5750°
perigee height: 416 km
apogee height: 18463 km
right ascension of ascending node: 264.8071°
argument of perigee: 155.3580°
revolutions per day: 4.36393808
mean anomaly at epoch: 248.6971°
orbit number at epoch: 19432

The dashed part of the orbit path shows where the satellite is in the earth's shadow,  

DLR